Location: *
(44.3526°S, 44.9014°W)
Time: 23:19:56
(UTC+00:00)

Cosmos 2266 Rocket - Pass Details

Date: 13 May 2025
Orbit: 934 x 1006 km, 82.9° (Epoch: 14 June)

Event Time Altitude Azimuth Distance (km) Brightness Sun altitude
Rises 21:55:37 0° 350° (N) 3,710 7.2 -23.4°
Reaches altitude 10° 21:58:07 10° 348° (NNW) 2,774 6.5 -23.9°
Maximum altitude 22:04:31 78° 262° (W) 1,044 4.1 -25.0°
Drops below altitude 10° 22:11:03 10° 174° (S) 2,816 6.3 -26.2°
Sets 22:13:37 0° 172° (S) 3,770 7.0 -26.6°
